FW2527 Weather Reports


Display with metric or nautical units.
time (UTC)temp
F
wind
direction
speed
MPH
gust
MPH
rain 1hr
in
rain 24hr
in
rain mn
in
humidity
%
barometer
mb
20260906161600 73 0.0 0.0 0.00 0.00 0.00 51 1020.5
20260906161050 73 0.0 0.0 0.00 0.00 0.00 50 1020.5
20260906160540 73 0.0 0.0 0.00 0.00 0.00 51 1020.6
20260906160100 73 0.0 0.0 0.00 0.00 0.00 49 1020.7
20260906155549 74 0.0 0.0 0.00 0.00 0.00 50 1020.8
20260906155039 74 0.0 0.0 0.00 0.00 0.00 50 1020.9
20260906154601 74 0.0 0.0 0.00 0.00 0.00 51 1020.9
20260906154052 74 0.0 0.0 0.00 0.00 0.00 51 1020.8
20260906153541 73 0.0 0.0 0.00 0.00 0.00 50 1021.0
20260906153102 74 0.0 0.0 0.00 0.00 0.00 51 1020.9
20260906152551 74 0.0 0.0 0.00 0.00 0.00 54 1021.0
20260906152041 73 0.0 0.0 0.00 0.00 0.00 54 1021.1
20260906151502 73 0.0 0.0 0.00 0.00 0.00 54 1021.1
20260906151053 73 0.0 0.0 0.00 0.00 0.00 53 1021.2
20260906150543 73 0.0 0.0 0.00 0.00 0.00 51 1021.3
20260906150001 72 0.0 0.0 0.00 0.00 0.00 52 1021.2
20260906145553 72 0.0 0.0 0.00 0.00 0.00 51 1021.4
20260906145043 73 0.0 0.0 0.00 0.00 0.00 52 1021.5
20260906144500 73 0.0 0.0 0.00 0.00 0.00 51 1021.7
20260906144052 73 0.0 0.0 0.00 0.00 0.00 52 1021.8
20260906143543 73 0.0 0.0 0.00 0.00 0.00 51 1021.9
20260906143004 72 0.0 0.0 0.00 0.00 0.00 54 1021.9
20260906142553 73 0.0 0.0 0.00 0.00 0.00 53 1021.8
20260906142044 73 0.0 0.0 0.00 0.00 0.00 54 1021.8
20260906141508 73 0.0 0.0 0.00 0.00 0.00 51 1021.8
20260906141055 74 0.0 0.0 0.00 0.00 0.00 52 1021.8
20260906140548 73 0.0 0.0 0.00 0.00 0.00 50 1021.8
20260906140005 73 0.0 0.0 0.00 0.00 0.00 49 1021.9
20260906135601 72 0.0 0.0 0.00 0.00 0.00 51 1021.9
20260906135047 71 0.0 0.0 0.00 0.00 0.00 52 1021.9
20260906134506 72 0.0 0.0 0.00 0.00 0.00 51 1022.0
20260906134058 72 0.0 0.0 0.00 0.00 0.00 52 1022.2
20260906133548 73 0.0 0.0 0.00 0.00 0.00 53 1022.1
20260906133006 73 0.0 0.0 0.00 0.00 0.00 54 1022.2
20260906132558 72 0.0 0.0 0.00 0.00 0.00 56 1022.3
20260906132047 72 0.0 0.0 0.00 0.00 0.00 55 1022.4
20260906131517 72 0.0 0.0 0.00 0.00 0.00 55 1022.5
20260906131006 71 0.0 0.0 0.00 0.00 0.00 57 1022.5
20260906130559 71 0.0 0.0 0.00 0.00 0.00 55 1022.6
20260906130017 71 0.0 0.0 0.00 0.00 0.00 54 1022.8
20260906125507 72 0.0 0.0 0.00 0.00 0.00 55 1022.8
20260906125103 71 0.0 0.0 0.00 0.00 0.00 55 1022.9
20260906124519 70 0.0 0.0 0.00 0.00 0.00 58 1023.0
20260906124009 70 0.0 0.0 0.00 0.00 0.00 57 1023.0
20260906123601 71 0.0 0.0 0.00 0.00 0.00 57 1023.0
20260906123030 71 0.0 0.0 0.00 0.00 0.00 58 1022.9
20260906122521 70 0.0 0.0 0.00 0.00 0.00 59 1022.9
20260906122008 69 0.0 0.0 0.00 0.00 0.00 59 1023.0
20260906121530 69 0.0 0.0 0.00 0.00 0.00 59 1023.0
20260906121021 69 0.0 0.0 0.00 0.00 0.00 58 1023.2
20260906120510 69 0.0 0.0 0.00 0.00 0.00 58 1023.2
20260906120033 70 0.0 0.0 0.00 0.00 0.00 59 1023.4
20260906115520 70 0.0 0.0 0.00 0.00 0.00 56 1023.5
20260906115010 72 0.0 0.0 0.00 0.00 0.00 58 1023.5
20260906114547 71 0.0 0.0 0.00 0.00 0.00 58 1023.5
20260906114030 70 0.0 0.0 0.00 0.00 0.00 62 1023.7
20260906113520 69 0.0 0.0 0.00 0.00 0.00 59 1023.7
20260906113043 70 0.0 0.0 0.00 0.00 0.00 58 1023.7
20260906112532 71 0.0 0.0 0.00 0.00 0.00 60 1023.7
20260906112023 69 0.0 0.0 0.00 0.00 0.00 61 1023.7
20260906111601 69 0.0 0.0 0.00 0.00 0.00 60 1023.9
20260906111033 68 0.0 0.0 0.00 0.00 0.00 62 1024.0
20260906110523 68 0.0 0.0 0.00 0.00 0.00 62 1024.0
20260906110044 68 0.0 0.0 0.00 0.00 0.00 60 1024.0
20260906105534 69 0.0 0.0 0.00 0.00 0.00 60 1023.9
20260906105027 69 0.0 0.0 0.00 0.00 0.00 62 1024.1
20260906104545 69 0.0 0.0 0.00 0.00 0.00 60 1024.2
20260906104036 69 0.0 0.0 0.00 0.00 0.00 61 1024.1
20260906103526 69 0.0 0.0 0.00 0.00 0.00 60 1024.2
20260906103047 69 0.0 0.0 0.00 0.00 0.00 61 1024.1
20260906102537 69 0.0 0.0 0.00 0.00 0.00 62 1024.3
20260906102027 68 0.0 0.0 0.00 0.00 0.00 63 1024.2
20260906101548 68 0.0 0.0 0.00 0.00 0.00 61 1024.3
20260906101041 68 0.0 0.0 0.00 0.00 0.00 64 1024.2
20260906100528 67 0.0 0.0 0.00 0.00 0.00 66 1024.2
20260906100054 68 0.0 0.0 0.00 0.00 0.00 62 1024.3
20260906095545 68 0.0 0.0 0.00 0.00 0.00 62 1024.3
20260906095028 68 0.0 0.0 0.00 0.00 0.00 63 1024.5
20260906094550 68 0.0 0.0 0.00 0.00 0.00 65 1024.4
20260906094039 67 0.0 0.0 0.00 0.00 0.00 66 1024.4
20260906093529 67 0.0 0.0 0.00 0.00 0.00 66 1024.6
20260906093050 66 0.0 0.0 0.00 0.00 0.00 67 1024.5
20260906092540 66 0.0 0.0 0.00 0.00 0.00 67 1024.6
20260906092030 66 0.0 0.0 0.00 0.00 0.00 67 1024.6
20260906091552 66 0.0 0.0 0.00 0.00 0.00 68 1024.6
20260906091042 65 0.0 0.0 0.00 0.00 0.00 69 1024.7
20260906090531 65 0.0 0.0 0.00 0.00 0.00 69 1024.8
20260906090057 65 0.0 0.0 0.00 0.00 0.00 69 1024.9
20260906085546 65 0.0 0.0 0.00 0.00 0.00 70 1024.9
20260906085033 65 0.0 0.0 0.00 0.00 0.00 72 1025.1
20260906084555 65 0.0 0.0 0.00 0.00 0.00 72 1025.0
20260906084045 65 0.0 0.0 0.00 0.00 0.00 73 1025.2
20260906083534 64 0.0 0.0 0.00 0.00 0.00 72 1025.2
20260906083055 64 0.0 0.0 0.00 0.00 0.00 74 1025.2
20260906082544 63 0.0 0.0 0.00 0.00 0.00 75 1025.2
20260906082036 63 0.0 0.0 0.00 0.00 0.00 75 1025.2
20260906081555 62 0.0 0.0 0.00 0.00 0.00 75 1025.3
20260906081045 62 0.0 0.0 0.00 0.00 0.00 76 1025.2
20260906080535 62 0.0 0.0 0.00 0.00 0.00 77 1025.2
20260906075545 61 0.0 0.0 0.00 0.00 0.00 80 1025.1
20260906075035 61 0.0 0.0 0.00 0.00 0.00 80 1025.0
20260906074556 61 0.0 0.0 0.00 0.00 0.00 81 1024.9
20260906074046 60 0.0 0.0 0.00 0.00 0.00 81 1025.0
20260906073536 60 0.0 0.0 0.00 0.00 0.00 82 1025.0
20260906073049 60 0.0 0.0 0.00 0.00 0.00 84 1025.1
20260906072537 59 0.0 0.0 0.00 0.00 0.00 86 1025.0
20260906072027 58 0.0 0.0 0.00 0.00 0.00 89 1025.0
20260906071552 57 0.0 0.0 0.00 0.00 0.00 90 1025.0
20260906071038 55 0.0 0.0 0.00 0.00 0.00 92 1025.1
20260906070529 55 0.0 0.0 0.00 0.00 0.00 92 1025.0
20260906070054 54 0.0 0.0 0.00 0.00 0.00 92 1025.1
20260906065538 54 0.0 0.0 0.00 0.00 0.00 92 1025.1
20260906065028 53 0.0 0.0 0.00 0.00 0.00 92 1024.8
20260906064553 53 0.0 0.0 0.00 0.00 0.00 92 1024.9
20260906064040 53 0.0 0.0 0.00 0.00 0.00 92 1024.9
20260906063529 53 0.0 0.0 0.00 0.00 0.00 92 1025.0
20260906063052 53 0.0 0.0 0.00 0.00 0.00 92 1024.8
20260906062541 53 0.0 0.0 0.00 0.00 0.00 92 1024.8
20260906062033 52 0.0 0.0 0.00 0.00 0.00 93 1024.7
20260906061557 52 0.0 0.0 0.00 0.00 0.00 93 1024.7
20260906061043 51 0.0 0.0 0.00 0.00 0.00 92 1024.7
20260906060534 51 0.0 0.0 0.00 0.00 0.00 92 1024.6
20260906060054 50 0.0 0.0 0.00 0.00 0.00 92 1024.6
20260906055543 50 0.0 0.0 0.00 0.00 0.00 92 1024.6
20260906055034 49 0.0 0.0 0.00 0.00 0.00 92 1024.6
20260906054603 49 0.0 0.0 0.00 0.00 0.00 92 1024.5
20260906054045 49 0.0 0.0 0.00 0.00 0.00 92 1024.5
20260906053535 48 0.0 0.0 0.00 0.00 0.00 92 1024.6
20260906053101 48 0.0 0.0 0.00 0.00 0.00 92 1024.5
20260906052550 48 0.0 0.0 0.00 0.00 0.00 92 1024.6
20260906052037 48 0.0 0.0 0.00 0.00 0.00 91 1024.6
20260906051506 48 0.0 0.0 0.00 0.00 0.00 91 1024.5
20260906051059 48 0.0 0.0 0.00 0.00 0.00 91 1024.5
20260906050549 48 0.0 0.0 0.00 0.00 0.00 91 1024.6
20260906050009 48 0.0 0.0 0.00 0.00 0.00 91 1024.5
20260906045600 48 0.0 0.0 0.00 0.00 0.00 91 1024.5
20260906045053 48 0.0 0.0 0.00 0.00 0.00 91 1024.8
20260906044510 48 0.0 0.0 0.00 0.00 0.00 91 1024.6
20260906044102 48 0.0 0.0 0.00 0.00 0.00 91 1024.6
20260906043551 48 0.0 0.0 0.00 0.00 0.00 91 1024.6
20260906043021 48 0.0 0.0 0.00 0.00 0.00 91 1024.4
20260906042511 48 0.0 0.0 0.00 0.00 0.00 91 1024.2
20260906042100 48 0.0 0.0 0.00 0.00 0.00 91 1024.1
20260906041524 48 0.0 0.0 0.00 0.00 0.00 91 1024.2
20260906041009 48 0.0 0.0 0.00 0.00 0.00 91 1024.1
20260906040605 48 0.0 0.0 0.00 0.00 0.00 91 1024.1
20260906040029 48 0.0 0.0 0.00 0.00 0.00 91 1024.3
20260906035508 48 0.0 0.0 0.00 0.00 0.00 91 1024.4
20260906035100 48 0.0 0.0 0.00 0.00 0.00 91 1024.3
20260906034530 48 0.0 0.0 0.00 0.00 0.00 91 1024.4
20260906034019 49 0.0 0.0 0.00 0.00 0.00 90 1024.5
20260906033509 49 0.0 0.0 0.00 0.00 0.00 91 1024.7
20260906033044 49 0.0 0.0 0.00 0.00 0.00 91 1024.7
20260906032523 49 0.0 0.0 0.00 0.00 0.00 91 1024.7
20260906032012 49 0.0 0.0 0.00 0.00 0.00 90 1024.9
20260906031534 49 0.0 0.0 0.00 0.00 0.00 90 1024.9
20260906031024 49 0.0 0.0 0.00 0.00 0.00 90 1024.9
20260906030515 49 0.0 0.0 0.00 0.00 0.00 90 1024.8
20260906030045 49 0.0 0.0 0.00 0.00 0.00 90 1025.0
20260906025535 49 0.0 0.0 0.00 0.00 0.00 90 1025.0
20260906025025 49 0.0 0.0 0.00 0.00 0.00 90 1024.8
20260906024559 49 0.0 0.0 0.00 0.00 0.00 90 1024.8
20260906024037 49 0.0 0.0 0.00 0.00 0.00 90 1024.9
20260906023530 49 0.0 0.0 0.00 0.00 0.00 90 1025.0
20260906023054 49 0.0 0.0 0.00 0.00 0.00 90 1025.0
20260906022536 49 0.0 0.0 0.00 0.00 0.00 90 1025.0
20260906022027 50 0.0 0.0 0.00 0.00 0.00 90 1024.9
20260906021547 50 0.0 0.0 0.00 0.00 0.00 90 1024.8
20260906021037 50 0.0 0.0 0.00 0.00 0.00 90 1025.0
20260906020527 49 0.0 0.0 0.00 0.00 0.00 90 1024.9
20260906020049 49 0.0 0.0 0.00 0.00 0.00 90 1024.8
20260906015543 49 0.0 0.0 0.00 0.00 0.00 89 1024.7
20260906015029 50 0.0 0.0 0.00 0.00 0.00 90 1024.7
20260906014551 50 0.0 0.0 0.00 0.00 0.00 90 1024.5
20260906014041 50 0.0 0.0 0.00 0.00 0.00 89 1024.3
20260906013531 50 0.0 0.0 0.00 0.00 0.00 89 1024.4
20260906013051 50 0.0 0.0 0.00 0.00 0.00 89 1024.6
20260906012540 50 0.0 0.0 0.00 0.00 0.00 89 1024.6
20260906012031 50 0.0 0.0 0.00 0.00 0.00 89 1024.6
20260906011552 50 0.0 0.0 0.00 0.00 0.00 89 1024.6
20260906011041 50 0.0 0.0 0.00 0.00 0.00 89 1024.5
20260906010529 50 0.0 0.0 0.00 0.00 0.00 89 1024.6
20260906010049 50 0.0 0.0 0.00 0.00 0.00 89 1024.6
20260906005540 50 0.0 0.0 0.00 0.00 0.00 89 1024.5
20260906005028 51 0.0 0.0 0.00 0.00 0.00 89 1024.5
20260906004551 51 0.0 0.0 0.00 0.00 0.00 89 1024.7
20260906004040 51 0.0 0.0 0.00 0.00 0.00 89 1024.5
20260906003532 51 0.0 0.0 0.00 0.00 0.00 89 1024.7
20260906003054 51 0.0 0.0 0.00 0.00 0.00 89 1024.6
20260906002543 51 0.0 0.0 0.00 0.00 0.00 88 1024.6
20260906002028 51 0.0 0.0 0.00 0.00 0.00 88 1024.7
20260906001550 51 0.0 0.0 0.00 0.00 0.00 88 1024.7
20260906001039 51 0.0 0.0 0.00 0.00 0.00 88 1024.8
20260906000530 51 0.0 0.0 0.00 0.00 0.00 88 1024.7
20260906000051 51 0.0 0.0 0.00 0.00 0.00 88 1024.7
20260905235543 51 0.0 0.0 0.00 0.00 0.00 88 1024.8
20260905235031 52 0.0 0.0 0.00 0.00 0.00 88 1024.7
20260905234552 52 0.0 0.0 0.00 0.00 0.00 88 1024.6
20260905234042 52 0.0 0.0 0.00 0.00 0.00 88 1024.6
20260905233533 52 0.0 0.0 0.00 0.00 0.00 88 1024.5
20260905233059 52 0.0 0.0 0.00 0.00 0.00 87 1024.6
20260905232542 52 0.0 0.0 0.00 0.00 0.00 87 1024.5
20260905232032 52 0.0 0.0 0.00 0.00 0.00 87 1024.5
20260905231503 52 0.0 0.0 0.00 0.00 0.00 87 1024.6
20260905231053 52 0.0 0.0 0.00 0.00 0.00 87 1024.6
20260905230544 52 0.0 0.0 0.00 0.00 0.00 87 1024.5
20260905230004 53 0.0 0.0 0.00 0.00 0.00 86 1024.7
20260905225555 53 0.0 0.0 0.00 0.00 0.00 86 1024.5
20260905225046 53 0.0 0.0 0.00 0.00 0.00 86 1024.5
20260905224507 53 0.0 0.0 0.00 0.00 0.00 86 1024.4
20260905224056 53 0.0 0.0 0.00 0.00 0.00 86 1024.2
20260905223548 53 0.0 0.0 0.00 0.00 0.00 85 1024.4
20260905223007 53 0.0 0.0 0.00 0.00 0.00 85 1024.3
20260905222559 53 0.0 0.0 0.00 0.00 0.00 85 1024.3
20260905222049 53 0.0 0.0 0.00 0.00 0.00 85 1024.2
20260905221508 54 0.0 0.0 0.00 0.00 0.00 85 1024.1
20260905221102 54 0.0 0.0 0.00 0.00 0.00 84 1024.1
20260905220553 54 0.0 0.0 0.00 0.00 0.00 84 1024.1
20260905220019 54 0.0 0.0 0.00 0.00 0.00 84 1024.1
20260905215511 54 0.0 0.0 0.00 0.00 0.00 83 1023.9
20260905215105 54 0.0 0.0 0.00 0.00 0.00 83 1023.9
20260905214529 55 0.0 0.0 0.00 0.00 0.00 83 1023.8
20260905214019 55 0.0 0.0 0.00 0.00 0.00 82 1023.7
20260905213509 55 0.0 0.0 0.00 0.00 0.00 82 1023.7
20260905213032 55 0.0 0.0 0.00 0.00 0.00 82 1023.7
20260905212526 56 0.0 0.0 0.00 0.00 0.00 81 1023.8
20260905212008 56 0.0 0.0 0.00 0.00 0.00 81 1023.7
20260905211542 56 0.0 0.0 0.00 0.00 0.00 81 1023.8
20260905211021 56 0.0 0.0 0.00 0.00 0.00 80 1023.8
20260905210511 57 0.0 0.0 0.00 0.00 0.00 80 1023.8
20260905210049 57 0.0 0.0 0.00 0.00 0.00 79 1023.8
20260905205533 57 0.0 0.0 0.00 0.00 0.00 79 1023.8
20260905205021 57 0.0 0.0 0.00 0.00 0.00 79 1023.6
20260905204543 58 0.0 0.0 0.00 0.00 0.00 78 1023.7
20260905204036 58 0.0 0.0 0.00 0.00 0.00 78 1023.8
20260905203525 58 0.0 0.0 0.00 0.00 0.00 77 1023.7
20260905203046 58 0.0 0.0 0.00 0.00 0.00 77 1023.7
20260905202533 59 0.0 0.0 0.00 0.00 0.00 77 1023.7
20260905202023 59 0.0 0.0 0.00 0.00 0.00 76 1023.6
20260905201547 59 0.0 0.0 0.00 0.00 0.00 76 1023.6
20260905201034 59 0.0 0.0 0.00 0.00 0.00 75 1023.6
20260905200527 60 0.0 0.0 0.00 0.00 0.00 75 1023.5
20260905200045 60 0.0 0.0 0.00 0.00 0.00 75 1023.4
20260905195537 60 0.0 0.0 0.00 0.00 0.00 74 1023.4
20260905195028 60 0.0 0.0 0.00 0.00 0.00 74 1023.3
20260905194549 61 0.0 0.0 0.00 0.00 0.00 74 1023.2
20260905194039 61 0.0 0.0 0.00 0.00 0.00 73 1023.3
20260905193526 61 0.0 0.0 0.00 0.00 0.00 73 1023.3
20260905193057 61 0.0 0.0 0.00 0.00 0.00 72 1023.3
20260905192548 61 0.0 0.0 0.00 0.00 0.00 72 1023.2
20260905192037 62 0.0 0.0 0.00 0.00 0.00 71 1023.3
20260905191606 62 0.0 0.0 0.00 0.00 0.00 71 1023.2
20260905191048 62 0.0 0.0 0.00 0.00 0.00 70 1023.2
20260905190537 62 0.0 0.0 0.00 0.00 0.00 70 1023.1
20260905185548 62 0.0 0.0 0.00 0.00 0.00 70 1023.0
20260905185040 62 0.0 0.0 0.00 0.00 0.00 70 1023.0
20260905184604 62 0.0 0.0 0.00 0.00 0.00 69 1023.0
20260905184050 63 0.0 0.0 0.00 0.00 0.00 69 1023.0
20260905183540 63 0.0 0.0 0.00 0.00 0.00 69 1022.9
20260905183102 63 0.0 0.0 0.00 0.00 0.00 69 1022.7
20260905182550 63 0.0 0.0 0.00 0.00 0.00 69 1022.5
20260905182041 63 0.0 0.0 0.00 0.00 0.00 69 1022.6
20260905181604 63 0.0 0.0 0.00 0.00 0.00 69 1022.5
20260905181052 63 0.0 0.0 0.00 0.00 0.00 68 1022.5
20260905180543 63 0.0 0.0 0.00 0.00 0.00 69 1022.5
20260905175543 63 0.0 0.0 0.00 0.00 0.00 68 1022.5
20260905175033 64 0.0 0.0 0.00 0.00 0.00 68 1022.4
20260905174556 64 0.0 0.0 0.00 0.00 0.00 67 1022.4
20260905174045 64 0.0 0.0 0.00 0.00 0.00 67 1022.4
20260905173535 64 0.0 0.0 0.00 0.00 0.00 67 1022.4
20260905173114 64 0.0 0.0 0.00 0.00 0.00 67 1022.4
20260905172545 64 0.0 0.0 0.00 0.00 0.00 68 1022.4
20260905172035 64 0.0 0.0 0.00 0.00 0.00 67 1022.2
20260905171557 64 0.0 0.0 0.00 0.00 0.00 67 1022.2
20260905171046 65 0.0 0.0 0.00 0.00 0.00 66 1022.1
20260905170536 65 0.0 0.0 0.00 0.00 0.00 66 1022.2
20260905170111 65 0.0 0.0 0.00 0.00 0.00 65 1021.9
20260905165548 65 0.0 0.0 0.00 0.00 0.00 63 1021.9
20260905165039 65 0.0 0.0 0.00 0.00 0.00 63 1021.8
20260905164608 65 0.0 0.0 0.00 0.00 0.00 63 1021.8
20260905164050 66 0.0 0.0 0.00 0.00 0.00 64 1021.7
20260905163540 66 0.0 0.0 0.00 0.00 0.00 65 1021.7
20260905163114 66 0.0 0.0 0.00 0.00 0.00 67 1021.6
20260905162549 66 0.0 0.0 0.00 0.00 0.00 67 1021.6
20260905162040 66 0.0 0.0 0.00 0.00 0.00 67 1021.6